Home   Weather   Playa del Carmen   Past weeks
Flag for Mexico

Past Weather in Playa del Carmen, Quintana Roo, Mexico — Yesterday and Last 2 Weeks

Now
90 °F

Broken clouds.


Feels Like: 100 °F
Forecast: N/A
Wind: 9 mph from Southeast

Location: Cozumel Civ / Mil

Current Time: Jul 16, 2019 at 5:54:11 pm

Latest Report: Jul 16, 2019 at 4:43 pm


Visibility: 8 mi

Pressure: 29.99 "Hg

Humidity: 63%

Dew Point: 75 °F

Location of Playa del CarmenLocation

Past Weather in Playa del Carmen — Graph

°F

Playa del Carmen Temperature Yesterday

Maximum temperature yesterday: 93 °F (at 1:43 pm)
Minimum temperature yesterday: 75 °F (at 5:49 am)
Average temperature yesterday: 84 °F

High & Low Weather Summary for the Past Weeks

 TemperatureHumidityPressure
High93 °F (Jul 15, 1:43 pm)100% (Jul 2, 2:46 am)30.06 "Hg (Jul 2, 2:46 am)
Low75 °F (Jul 4, 5:49 am)47% (Jul 16, 1:43 pm)29.87 "Hg (Jul 11, 4:40 pm)
Average84 °F79%29.98 "Hg
* Reported Jul 1 4:43 pm — Jul 16 4:43 pm, Playa del Carmen. Weather by CustomWeather, © 2019

Note: Actual official high and low records may vary slightly from our data, if they occured in-between our weather recording intervals... More about our weather records

Advertising

Playa del Carmen Weather History for the Previous 24 Hours

Scroll right to see more
 ConditionsComfort  
Time TempWeatherWind HumidityBarometerVisibility
4:43 pm
Tue, Jul 16
90 °FBroken clouds.9 mph63%29.99 "Hg8 mi
3:43 pm90 °FPartly sunny.9 mph63%30.00 "Hg8 mi
2:46 pm91 °FPartly sunny.8 mph56%30.00 "Hg8 mi
1:43 pm93 °FBroken clouds.10 mph47%30.01 "Hg8 mi
12:43 pm91 °FBroken clouds.12 mph56%30.05 "Hg8 mi
11:42 am90 °FBroken clouds.8 mph63%30.04 "Hg8 mi
10:41 am88 °FBroken clouds.8 mph66%30.04 "Hg8 mi
9:43 am86 °FBroken clouds.12 mph75%30.04 "Hg8 mi
8:45 am86 °FBroken clouds.14 mph75%30.01 "Hg8 mi
7:42 am82 °FBroken clouds.7 mph84%30.00 "Hg8 mi
6:47 am79 °FPassing clouds.5 mph94%29.99 "Hg8 mi
5:48 am77 °FPassing clouds.No wind94%29.97 "Hg8 mi
4:44 am77 °FPassing clouds.3 mph94%29.97 "Hg7 mi
3:45 am77 °FPassing clouds.3 mph94%29.98 "Hg7 mi
2:42 am77 °FClear.No wind94%29.98 "Hg7 mi
1:43 am79 °FClear.No wind89%29.99 "Hg7 mi
12:46 am79 °FPassing clouds.3 mph94%30.02 "Hg7 mi
11:44 pm
Mon, Jul 15
79 °FPassing clouds.3 mph89%30.02 "Hg7 mi
10:46 pm81 °FPassing clouds.No wind89%30.02 "Hg7 mi
9:44 pm81 °FClear.5 mph89%30.02 "Hg7 mi
8:50 pm82 °FClear.6 mph84%29.99 "Hg7 mi
7:45 pm84 °FSunny.7 mph79%29.97 "Hg7 mi
6:45 pm86 °FSunny.12 mph70%29.97 "Hg8 mi
5:41 pm88 °FScattered clouds.14 mph62%29.96 "Hg8 mi
Weather by CustomWeather, © 2019

See weather overview

LIVE PARTIAL LUNAR ECLIPSE – Watch the eclipse as it happens